sat.trackr.live / text

‹ back to catalog

JILIN-1 GAOFEN 03D13

NORAD 51846 · 2022-019Y

PAYLOAD ACTIVE UNKNOWN

§ Identity

Operator
Country
PRC
Launch date
2022-02-27
Launch site
WSC
Launch vehicle
Mass (kg)
RCS (m²)

External: N2YO · Heavens-Above · Gunter

§ Orbital elements

Epoch: 2026-05-24T23:11:46.184928Z

Period
90.74 min
Inclination
97.3634°
Eccentricity
0.0005166
Mean motion
15.86946634 rev/d
Perigee alt
307.4 km
Apogee alt
314.3 km
Semi-major
6,689.0 km
B*
9.1057e-4
RAAN
239.8544°
Arg perigee
216.8287°
Mean anomaly
143.2630°
Rev number
23,624

§ Raw data

JILIN-1 GAOFEN 03D131 51846U 22019Y   26144.96650677  .00239207  00000+0  91057-3 0  99982 51846  97.3634 239.8544 0005166 216.8287 143.2630 15.86946634236243

JSON: /api/v1/satellites/51846 · /tle

For live sub-satellite position, see the globe view (requires WebGL).

§ Visibility from observer

Set your observer location to see the next 7 days of passes ≥ 10°. The values pass through the URL so the page stays shareable.

No JS? Fill the form by hand. The geolocation button needs JavaScript.